Location: ????????
(55.0097°N, 38.5678°E)
Time: 05:43:01
(UTC+00:00)

IDEFIX/ARIANE 42P - Visible Passes

Search period start: 13 July 2024 00:00
Search period end: 23 July 2024 00:00
Orbit: 782 x 800 km, 98.5° (Epoch: 12 July)

Date Brightness Start Highest point End Pass type
(mag) Time Alt. Az. Time Alt. Az. Time Alt. Az.
13 Jul 4.9 21:34:58 10° ENE 21:37:10 13° E 21:39:21 10° ESE visible
13 Jul 2.8 23:12:32 10° NNE 23:17:44 66° ESE 23:22:46 11° S visible
14 Jul 3.5 22:43:28 10° NNE 22:48:22 40° E 22:53:09 10° SSE visible
15 Jul 4.2 22:14:37 10° NE 22:18:53 25° E 22:23:07 10° SE visible
15 Jul 2.7 23:53:42 10° NNE 23:58:51 66° WNW 00:03:58 10° SSW visible
16 Jul 4.8 21:46:13 10° NE 21:49:15 16° E 21:52:17 10° ESE visible
16 Jul 2.6 23:24:25 10° NNE 23:29:39 80° ESE 23:34:39 11° SSW visible
17 Jul 3.2 22:55:17 10° NNE 23:00:20 49° E 23:05:02 12° S visible
18 Jul 3.9 22:26:20 10° NNE 22:30:54 30° E 22:35:24 10° SSE visible
19 Jul 2.9 00:05:38 10° N 00:10:42 54° WNW 00:15:43 10° SW visible
19 Jul 4.5 21:57:41 10° NE 22:01:19 19° E 22:04:57 10° SE visible
19 Jul 2.6 23:36:19 10° NNE 23:41:32 86° WNW 23:46:32 11° SSW visible
20 Jul 4.9 21:30:02 10° ENE 21:31:37 11° E 21:33:13 10° E visible
20 Jul 2.9 23:07:07 10° NNE 23:12:17 60° ESE 23:16:54 13° S visible
21 Jul 3.6 22:38:04 10° NNE 22:42:53 37° E 22:47:16 12° SSE visible
22 Jul 3.2 00:17:35 10° N 00:22:31 45° WNW 00:27:25 10° SW visible
22 Jul 4.3 22:09:16 10° NE 22:13:21 23° E 22:17:25 10° SE visible
22 Jul 2.7 23:48:13 10° NNE 23:53:24 71° WNW 23:58:23 11° SSW visible
